Regional Weather Roundup
Issued by NWS New Orleans/Baton Rouge, LA

Home | Current Version | Previous Version | Text Only | Print | Product List | Glossary On
Versions: 1 2 3 4 5 6 7 8 9 10 11 12 13 14 15 16 17 18 19 20 21 22 23 24 25 26 27 28 29 30 31 32 33 34 35 36 37 38 39 40 41 42 43 44 45 46 47 48 49 50
627
ASUS44 KLIX 222105
RWRLIX
NEW ORLEANS REGIONAL WEATHER ROUNDUP
NATIONAL WEATHER SERVICE NEW ORLEANS LA
400 PM CDT FRI AUG 22 2014

NOTE: "FAIR" INDICATES FEW OR NO CLOUDS BELOW 12,000 FEET WITH NO
      SIGNIFICANT WEATHER AND/OR OBSTRUCTIONS TO VISIBILITY.
      SKY/WX - SKY CONDITION AND SIGNIFICANT WEATHER.
      TMP - AIR TEMPERATURE.     DP    - DEWPOINT TEMPERATURE.
      RH  - RELATIVE HUMIDITY.   PRES  - PRESSURE.
      HI  - HEAT INDEX.          WCI   - WIND CHILL INDEX.

*  THESE STATIONS ARE NOT NWS OR FAA STATIONS AND ARE NOT UNDER
   NWS QUALITY CONTROL.

LAZ038-040-048-061>063-065>067-069-222200-
SOUTHEAST LOUISIANA

CITY           SKY/WX    TMP DP  RH WIND       PRES   REMARKS
N.O. AUDUBON     N/A     96  75  51 MISG        N/A  HX 108
N.O. INTL ARPT MOSUNNY   94  68  42 NW5       30.04F HX  98
N.O. LAKEFRONT SUNNY     90  74  59 W5        30.05F HX  99
N.O. DOWNTOWN*   N/A     95  66  38 CALM      30.05F HX  98
SLIDELL        MOSUNNY   96  70  42 NE7       30.03F HX 102
BATON ROUGE    SUNNY     94  71  47 VRB3      30.05F HX 101
BOOTHVILLE     SUNNY     91  75  59 VRB5      30.06F HX 101
BELLE CHASSE   PTSUNNY   93  70  46 E9        30.04F HX  99
BOGALUSA*        N/A     95  71  44 CALM      30.05F HX 102
GALLIANO*      NOT AVBL
NEW ROADS*       N/A     91  76  62 N7        30.05F HX 103
GONZALES*      MOCLDY    93  77  58 CALM      30.04F HX 107
HAMMOND*       MOSUNNY   93  70  46 SE5       30.05F HX  99
HOUMA*         MOSUNNY   97  66  36 NE5       30.04F HX 100
PORT FOURCHON* CLEAR     91  73  55 SE10      30.06F HX 100

$$

MSZ070-080>082-222200-
SOUTHERN MISSISSIPPI

CITY           SKY/WX    TMP DP  RH WIND       PRES   REMARKS
MCCOMB         MOSUNNY   92  70  48 CALM      30.06F HX  97
GULFPORT       MOSUNNY   91  74  57 S8        30.02F HX 100
BILOXI         SUNNY     94  76  56 SW10      30.03F HX 106
PASCAGOULA     PTSUNNY   93  77  59 VRB7      30.03F HX 107
STENNIS ARPT*  MOSUNNY  N/A N/A N/A CALM      30.04F

$$

COASTAL OBSERVATIONS
LAKE AND NEARSHORE STATIONS

STATION/POSITION TIME  TEMP    WIND        PRES    WAVE
                       AIR SEA DIR/SP/G            HT/PER
                 (UTC) (F)     (DEG/KT/KT) (MB)    (FT/S)
PASCAGOULA       2100   91     190/  7/  9 1016.7
WAVELAND YACHT   2100   90     180/  7/ 11 1016.7
GRAND ISLE       2100   91 90  120/  3/  6 1018.5
SOUTHWEST PASS   2100   95 89   70/  5/  7 1018.3
NEW CANAL        2100   89 86  330/  3/  4 1018.3
SHELL BEACH      2100   89 84  330/  3/  3 1017.6

OFFSHORE STATIONS

STATION/POSITION TIME  TEMP    WIND        PRES    WAVE
                       AIR SEA DIR/SP/G            HT/PER
                 (UTC) (F)     (DEG/KT/KT) (MB)    (FT/S)
64 S DAUPHIN ISL 1955   86 90   40/  6/  8 1017.9

$$




USA.gov is the U.S. government's official web portal to all federal, state and local government web resources and services.